DAL2243 KLAX-KMCI

Flight info

Callsign DAL2243
Flight time 2h 34m
Altitude 37000
Route ORCKA5 LAS J146 DVC DDC ZOURA WUTNG3
Aircraft A319/M-SDE3FGHIRWY/LB1

Departure

Time 2026-04-26 16:46
Airport Los Angeles International Airport (KLAX)

Arrival

Time 2026-04-26 19:20
Airport Kansas City International Airport (KMCI)
Time Latitude Longitude Altitude Speed Heading
2026-04-26 16:00 33.94727 -118.40441 93 ft 0 kts 163°
2026-04-26 16:39 33.94740 -118.40446 93 ft 4 kts 163°
2026-04-26 16:39 33.94761 -118.40454 92 ft 3 kts 163°
2026-04-26 16:39 33.94784 -118.40467 93 ft 4 kts 126°
2026-04-26 16:40 33.94790 -118.40492 92 ft 3 kts 82°
2026-04-26 16:40 33.94788 -118.40511 93 ft 0 kts 82°
2026-04-26 16:42 33.94789 -118.40500 93 ft 2 kts 82°
2026-04-26 16:42 33.94792 -118.40470 95 ft 7 kts 83°
2026-04-26 16:42 33.94799 -118.40404 94 ft 8 kts 83°
2026-04-26 16:43 33.94813 -118.40325 93 ft 12 kts 64°
2026-04-26 16:43 33.94881 -118.40283 94 ft 11 kts 27°
2026-04-26 16:43 33.94903 -118.40205 94 ft 11 kts 85°
2026-04-26 16:43 33.94912 -118.40116 94 ft 11 kts 83°
2026-04-26 16:44 33.94922 -118.40015 93 ft 14 kts 83°
2026-04-26 16:44 33.94971 -118.39919 93 ft 15 kts 18°
2026-04-26 16:44 33.95043 -118.39937 94 ft 6 kts 305°
2026-04-26 16:44 33.95043 -118.39963 95 ft 2 kts 260°
2026-04-26 16:45 33.95033 -118.40051 95 ft 37 kts 263°
2026-04-26 16:45 33.94970 -118.40655 98 ft 106 kts 263°
2026-04-26 16:45 33.94863 -118.41716 100 ft 158 kts 263°
2026-04-26 16:45 33.94725 -118.43042 645 ft 160 kts 263°
2026-04-26 16:46 33.94574 -118.44378 1379 ft 161 kts 262°
2026-04-26 16:46 33.94422 -118.45720 2043 ft 166 kts 263°
2026-04-26 16:46 33.94262 -118.47177 2424 ft 186 kts 263°
2026-04-26 16:46 33.94075 -118.48793 2844 ft 202 kts 262°
2026-04-26 16:47 33.93480 -118.50367 3353 ft 221 kts 230°
2026-04-26 16:47 33.92149 -118.51458 3893 ft 244 kts 212°
2026-04-26 16:47 33.90620 -118.52456 4782 ft 254 kts 212°
2026-04-26 16:47 33.89026 -118.53480 5739 ft 263 kts 212°
2026-04-26 16:48 33.87337 -118.54462 6764 ft 272 kts 204°
2026-04-26 16:48 33.85423 -118.54746 7638 ft 287 kts 177°
2026-04-26 16:48 33.83515 -118.53924 8471 ft 301 kts 147°
2026-04-26 16:48 33.82111 -118.52040 9291 ft 309 kts 116°
2026-04-26 16:49 33.81631 -118.49536 10097 ft 310 kts 84°
2026-04-26 16:49 33.82198 -118.47085 10833 ft 305 kts 54°
2026-04-26 16:49 33.83641 -118.45287 11555 ft 297 kts 25°
2026-04-26 16:49 33.85552 -118.44520 12279 ft 291 kts
2026-04-26 16:50 33.87642 -118.44275 12532 ft 314 kts
2026-04-26 16:50 33.89874 -118.43693 12701 ft 343 kts 12°
2026-04-26 16:50 33.92140 -118.42514 13081 ft 364 kts 24°
2026-04-26 16:50 33.94243 -118.40721 13735 ft 377 kts 36°
2026-04-26 16:51 33.96054 -118.38379 14353 ft 388 kts 49°
2026-04-26 16:51 33.97601 -118.35680 14957 ft 394 kts 52°
2026-04-26 16:51 33.99155 -118.32935 15544 ft 399 kts 52°
2026-04-26 16:51 34.00734 -118.30151 16133 ft 404 kts 52°
2026-04-26 16:52 34.02351 -118.27300 16717 ft 409 kts 52°
2026-04-26 16:52 34.03421 -118.25414 17113 ft 412 kts 52°
2026-04-26 16:52 34.05598 -118.21572 17899 ft 418 kts 52°
2026-04-26 16:52 34.07250 -118.18655 18442 ft 423 kts 52°
2026-04-26 16:53 34.08920 -118.15704 18954 ft 427 kts 52°
2026-04-26 16:53 34.10601 -118.12731 19488 ft 431 kts 53°
2026-04-26 16:53 34.12294 -118.09738 20027 ft 434 kts 53°
2026-04-26 16:53 34.14003 -118.06716 20546 ft 437 kts 53°
2026-04-26 16:54 34.15721 -118.03673 21034 ft 441 kts 53°
2026-04-26 16:54 34.17455 -118.00597 21524 ft 445 kts 53°
2026-04-26 16:54 34.19199 -117.97497 22012 ft 448 kts 53°
2026-04-26 16:54 34.20955 -117.94371 22470 ft 451 kts 53°
2026-04-26 16:55 34.22724 -117.91221 22927 ft 454 kts 53°
2026-04-26 16:55 34.24503 -117.88053 23396 ft 457 kts 53°
2026-04-26 16:55 34.26297 -117.84853 23801 ft 460 kts 53°
2026-04-26 16:55 34.28096 -117.81641 24161 ft 463 kts 53°
2026-04-26 16:56 34.31735 -117.75138 24851 ft 470 kts 54°
2026-04-26 16:56 34.33570 -117.71855 25196 ft 472 kts 54°
2026-04-26 16:56 34.35408 -117.68562 25539 ft 475 kts 53°
2026-04-26 16:57 34.37304 -117.65258 25883 ft 478 kts 52°
2026-04-26 16:57 34.39250 -117.61978 26224 ft 481 kts 51°
2026-04-26 16:57 34.43234 -117.55425 26858 ft 486 kts 51°
2026-04-26 16:58 34.45247 -117.52117 27241 ft 487 kts 51°
2026-04-26 16:58 34.45925 -117.50995 27431 ft 487 kts 51°
2026-04-26 16:58 34.51250 -117.42058 28378 ft 492 kts 52°
2026-04-26 16:59 34.53217 -117.38728 28674 ft 494 kts 52°
2026-04-26 16:59 34.57261 -117.31872 29259 ft 499 kts 52°
2026-04-26 17:00 34.61308 -117.25032 30059 ft 498 kts 52°
2026-04-26 17:00 34.64670 -117.19353 30588 ft 499 kts 52°
2026-04-26 17:00 34.67382 -117.14761 30926 ft 501 kts 52°
2026-04-26 17:01 34.68723 -117.12488 31108 ft 502 kts 52°
2026-04-26 17:01 34.70764 -117.09026 31396 ft 503 kts 52°
2026-04-26 17:01 34.72803 -117.05564 31689 ft 504 kts 52°
2026-04-26 17:01 34.74842 -117.02096 32001 ft 506 kts 52°
2026-04-26 17:02 34.76888 -116.98610 32295 ft 507 kts 52°
2026-04-26 17:02 34.78936 -116.95114 32606 ft 508 kts 52°
2026-04-26 17:02 34.80986 -116.91612 32912 ft 509 kts 52°
2026-04-26 17:02 34.83039 -116.88104 33242 ft 510 kts 52°
2026-04-26 17:03 34.85099 -116.84584 33580 ft 510 kts 52°
2026-04-26 17:03 34.87160 -116.81053 33843 ft 513 kts 52°
2026-04-26 17:03 34.89226 -116.77503 34094 ft 514 kts 52°
2026-04-26 17:03 34.91300 -116.73950 34345 ft 514 kts 50°
2026-04-26 17:04 34.93629 -116.70595 34596 ft 511 kts 43°
2026-04-26 17:04 34.96052 -116.67427 34850 ft 512 kts 43°
2026-04-26 17:04 34.98448 -116.64287 35083 ft 512 kts 44°
2026-04-26 17:04 35.00871 -116.61100 35324 ft 513 kts 44°
2026-04-26 17:05 35.03322 -116.57869 35561 ft 513 kts 44°
2026-04-26 17:05 35.05746 -116.54669 35801 ft 513 kts 44°
2026-04-26 17:05 35.08164 -116.51478 36062 ft 512 kts 44°
2026-04-26 17:05 35.10581 -116.48283 36292 ft 512 kts 44°
2026-04-26 17:06 35.13002 -116.45079 36502 ft 512 kts 44°
2026-04-26 17:06 35.15417 -116.41877 36716 ft 513 kts 44°
2026-04-26 17:06 35.17827 -116.38675 36864 ft 514 kts 44°
2026-04-26 17:06 35.20257 -116.35448 36863 ft 515 kts 44°
2026-04-26 17:07 35.25106 -116.29006 36863 ft 515 kts 44°
2026-04-26 17:07 35.29956 -116.22550 36871 ft 515 kts 45°
2026-04-26 17:08 35.34808 -116.16087 36863 ft 515 kts 45°
2026-04-26 17:08 35.39656 -116.09609 36879 ft 516 kts 45°
2026-04-26 17:09 35.43682 -116.04219 36874 ft 516 kts 45°
2026-04-26 17:09 35.49341 -115.96621 36883 ft 516 kts 45°
2026-04-26 17:10 35.54178 -115.90115 36890 ft 516 kts 45°
2026-04-26 17:10 35.59013 -115.83603 36882 ft 517 kts 45°
2026-04-26 17:11 35.63859 -115.77065 36882 ft 517 kts 45°
2026-04-26 17:11 35.68673 -115.70487 36886 ft 517 kts 45°
2026-04-26 17:12 35.75873 -115.60522 36888 ft 518 kts 45°
2026-04-26 17:13 35.83070 -115.50580 36896 ft 519 kts 45°
2026-04-26 17:14 35.90277 -115.40618 36883 ft 519 kts 45°
2026-04-26 17:14 35.97473 -115.30619 36852 ft 519 kts 45°
2026-04-26 17:15 36.04653 -115.20618 36852 ft 519 kts 46°
2026-04-26 17:16 36.08709 -115.13207 36855 ft 523 kts 64°
2026-04-26 17:16 36.11386 -115.04866 36850 ft 523 kts 69°
2026-04-26 17:17 36.13988 -114.96467 36754 ft 523 kts 69°
2026-04-26 17:17 36.16588 -114.88054 36755 ft 523 kts 69°
2026-04-26 17:18 36.19163 -114.79627 36749 ft 524 kts 69°
2026-04-26 17:18 36.21746 -114.71184 36739 ft 524 kts 69°
2026-04-26 17:19 36.25630 -114.58474 36729 ft 524 kts 69°
2026-04-26 17:19 36.28205 -114.50031 36761 ft 524 kts 69°
2026-04-26 17:20 36.30338 -114.43005 36754 ft 523 kts 69°
2026-04-26 17:20 36.33312 -114.33140 36756 ft 522 kts 70°
2026-04-26 17:21 36.35849 -114.24718 36752 ft 521 kts 70°
2026-04-26 17:21 36.38386 -114.16284 36748 ft 521 kts 70°
2026-04-26 17:22 36.40905 -114.07866 36748 ft 520 kts 70°
2026-04-26 17:22 36.43423 -113.99441 36754 ft 520 kts 70°
2026-04-26 17:23 36.45929 -113.91006 36739 ft 521 kts 70°
2026-04-26 17:23 36.48436 -113.82565 36748 ft 521 kts 70°
2026-04-26 17:24 36.50940 -113.74116 36759 ft 521 kts 70°
2026-04-26 17:24 36.53459 -113.65588 36743 ft 523 kts 70°
2026-04-26 17:25 36.55937 -113.57146 36741 ft 524 kts 70°
2026-04-26 17:25 36.58445 -113.48579 36743 ft 525 kts 70°
2026-04-26 17:26 36.60942 -113.40035 36743 ft 525 kts 70°
2026-04-26 17:26 36.63438 -113.31486 36737 ft 526 kts 70°
2026-04-26 17:27 36.65931 -113.22922 36746 ft 527 kts 70°
2026-04-26 17:27 36.68408 -113.14334 36777 ft 527 kts 70°
2026-04-26 17:28 36.70882 -113.05743 36786 ft 527 kts 70°
2026-04-26 17:28 36.73359 -112.97151 36808 ft 527 kts 70°
2026-04-26 17:29 36.75010 -112.91394 36814 ft 527 kts 71°
2026-04-26 17:29 36.78274 -112.79934 36789 ft 527 kts 71°
2026-04-26 17:30 36.80720 -112.71331 36771 ft 526 kts 71°
2026-04-26 17:30 36.83184 -112.62678 36752 ft 525 kts 71°
2026-04-26 17:31 36.85604 -112.54147 36742 ft 525 kts 71°
2026-04-26 17:31 36.88046 -112.45487 36728 ft 524 kts 71°
2026-04-26 17:32 36.90459 -112.36895 36726 ft 524 kts 71°
2026-04-26 17:32 36.92460 -112.29754 36721 ft 525 kts 71°
2026-04-26 17:33 36.94857 -112.21144 36720 ft 525 kts 71°
2026-04-26 17:34 36.98463 -112.08202 36710 ft 525 kts 71°
2026-04-26 17:34 37.00856 -111.99588 36697 ft 525 kts 71°
2026-04-26 17:35 37.03249 -111.90936 36693 ft 526 kts 71°
2026-04-26 17:35 37.05636 -111.82293 36727 ft 526 kts 72°
2026-04-26 17:36 37.08026 -111.73583 36714 ft 525 kts 72°
2026-04-26 17:36 37.10385 -111.64948 36712 ft 524 kts 72°
2026-04-26 17:37 37.12748 -111.56287 36710 ft 524 kts 72°
2026-04-26 17:37 37.15097 -111.47654 36766 ft 524 kts 72°
2026-04-26 17:38 37.18618 -111.34669 36748 ft 524 kts 72°
2026-04-26 17:38 37.20961 -111.26002 36723 ft 524 kts 72°
2026-04-26 17:39 37.23312 -111.17299 36709 ft 524 kts 72°
2026-04-26 17:39 37.25640 -111.08615 36695 ft 524 kts 72°
2026-04-26 17:40 37.27562 -111.01398 36693 ft 524 kts 73°
2026-04-26 17:40 37.30263 -110.91238 36691 ft 524 kts 73°
2026-04-26 17:41 37.32558 -110.82557 36679 ft 524 kts 73°
2026-04-26 17:41 37.34844 -110.73863 36670 ft 524 kts 73°
2026-04-26 17:42 37.37143 -110.65155 36669 ft 525 kts 73°
2026-04-26 17:42 37.39449 -110.56435 36674 ft 526 kts 73°
2026-04-26 17:43 37.41741 -110.47697 36678 ft 526 kts 73°
2026-04-26 17:43 37.44021 -110.38954 36675 ft 526 kts 73°
2026-04-26 17:44 37.46309 -110.30135 36680 ft 527 kts 73°
2026-04-26 17:44 37.48577 -110.21362 36681 ft 527 kts 73°
2026-04-26 17:45 37.50833 -110.12580 36681 ft 527 kts 73°
2026-04-26 17:45 37.53096 -110.03790 36698 ft 527 kts 73°
2026-04-26 17:46 37.55351 -109.95004 36701 ft 527 kts 73°
2026-04-26 17:46 37.57595 -109.86199 36718 ft 528 kts 73°
2026-04-26 17:47 37.59454 -109.78877 36716 ft 528 kts 73°
2026-04-26 17:47 37.62067 -109.68558 36817 ft 528 kts 74°
2026-04-26 17:48 37.64298 -109.59715 36863 ft 530 kts 74°
2026-04-26 17:48 37.66530 -109.50856 36878 ft 530 kts 74°
2026-04-26 17:49 37.68766 -109.41975 36857 ft 530 kts 74°
2026-04-26 17:49 37.70989 -109.33112 36838 ft 530 kts 74°
2026-04-26 17:50 37.73200 -109.24227 36812 ft 530 kts 74°
2026-04-26 17:50 37.75393 -109.15343 36779 ft 529 kts 74°
2026-04-26 17:51 37.77581 -109.06460 36749 ft 529 kts 74°
2026-04-26 17:51 37.79783 -108.97537 36785 ft 529 kts 75°
2026-04-26 17:52 37.81079 -108.88524 36779 ft 520 kts 91°
2026-04-26 17:52 37.81448 -108.79348 36734 ft 520 kts 91°
2026-04-26 17:53 37.81818 -108.70202 36740 ft 521 kts 91°
2026-04-26 17:54 37.82378 -108.56462 36761 ft 522 kts 91°
2026-04-26 17:54 37.82737 -108.47286 36775 ft 523 kts 91°
2026-04-26 17:55 37.83078 -108.38092 36778 ft 523 kts 91°
2026-04-26 17:55 37.83423 -108.28885 36796 ft 525 kts 91°
2026-04-26 17:56 37.83771 -108.19657 36832 ft 525 kts 91°
2026-04-26 17:57 37.84423 -108.01166 36906 ft 526 kts 92°
2026-04-26 17:57 37.84739 -107.91910 36927 ft 527 kts 92°
2026-04-26 17:58 37.85354 -107.73382 36797 ft 527 kts 92°
2026-04-26 17:59 37.85796 -107.59427 36790 ft 527 kts 92°
2026-04-26 17:59 37.86083 -107.50167 36792 ft 526 kts 92°
2026-04-26 18:00 37.86360 -107.40921 36789 ft 527 kts 92°
2026-04-26 18:00 37.86632 -107.31655 36766 ft 527 kts 92°
2026-04-26 18:01 37.86894 -107.22397 36776 ft 526 kts 92°
2026-04-26 18:01 37.87153 -107.13144 36768 ft 526 kts 92°
2026-04-26 18:02 37.87323 -107.06956 36766 ft 526 kts 92°
2026-04-26 18:02 37.87641 -106.94599 36777 ft 530 kts 92°
2026-04-26 18:03 37.87868 -106.85265 36774 ft 531 kts 92°
2026-04-26 18:03 37.88098 -106.75927 36763 ft 531 kts 92°
2026-04-26 18:04 37.88328 -106.66588 36767 ft 530 kts 92°
2026-04-26 18:05 37.88654 -106.52565 36846 ft 531 kts 92°
2026-04-26 18:05 37.88824 -106.44744 36857 ft 530 kts 92°
2026-04-26 18:06 37.89011 -106.35404 36874 ft 531 kts 92°
2026-04-26 18:06 37.89192 -106.26062 36872 ft 531 kts 92°
2026-04-26 18:07 37.89373 -106.16706 36822 ft 530 kts 92°
2026-04-26 18:07 37.89559 -106.07370 36764 ft 530 kts 92°
2026-04-26 18:08 37.89731 -105.98049 36713 ft 530 kts 93°
2026-04-26 18:08 37.89890 -105.88701 36682 ft 532 kts 93°
2026-04-26 18:09 37.90046 -105.79314 36679 ft 534 kts 93°
2026-04-26 18:09 37.90188 -105.69901 36694 ft 535 kts 93°
2026-04-26 18:10 37.90323 -105.60488 36708 ft 533 kts 92°
2026-04-26 18:10 37.90453 -105.51119 36719 ft 531 kts 92°
2026-04-26 18:11 37.90581 -105.41768 36729 ft 531 kts 93°
2026-04-26 18:11 37.90691 -105.32420 36727 ft 531 kts 93°
2026-04-26 18:12 37.90798 -105.23014 36712 ft 531 kts 93°
2026-04-26 18:12 37.90897 -105.13675 36700 ft 530 kts 93°
2026-04-26 18:13 37.90990 -105.04337 36655 ft 531 kts 93°
2026-04-26 18:13 37.91080 -104.95016 36662 ft 530 kts 93°
2026-04-26 18:14 37.91164 -104.85673 36662 ft 532 kts 94°
2026-04-26 18:14 37.91234 -104.76280 36656 ft 534 kts 94°
2026-04-26 18:15 37.91289 -104.66861 36649 ft 536 kts 94°
2026-04-26 18:15 37.91342 -104.57407 36659 ft 537 kts 94°
2026-04-26 18:16 37.91405 -104.47941 36684 ft 538 kts 94°
2026-04-26 18:16 37.91455 -104.33749 36704 ft 538 kts 94°
2026-04-26 18:17 37.91481 -104.24261 36709 ft 538 kts 94°
2026-04-26 18:17 37.91510 -104.14725 36716 ft 537 kts 94°
2026-04-26 18:18 37.91523 -104.05279 36746 ft 536 kts 94°
2026-04-26 18:18 37.91536 -103.95842 36738 ft 536 kts 94°
2026-04-26 18:19 37.91536 -103.86483 36742 ft 535 kts 94°
2026-04-26 18:19 37.91527 -103.76986 36727 ft 535 kts 94°
2026-04-26 18:20 37.91508 -103.67570 36737 ft 535 kts 94°
2026-04-26 18:20 37.91490 -103.59747 36739 ft 535 kts 94°
2026-04-26 18:21 37.91451 -103.48733 36733 ft 535 kts 94°
2026-04-26 18:21 37.91414 -103.39318 36736 ft 534 kts 94°
2026-04-26 18:22 37.91371 -103.29919 36741 ft 534 kts 94°
2026-04-26 18:22 37.91317 -103.20520 36748 ft 534 kts 95°
2026-04-26 18:23 37.91255 -103.11122 36690 ft 534 kts 95°
2026-04-26 18:23 37.91193 -103.01688 36735 ft 537 kts 95°
2026-04-26 18:24 37.91116 -102.92220 36740 ft 537 kts 95°
2026-04-26 18:24 37.91032 -102.82751 36757 ft 538 kts 95°
2026-04-26 18:25 37.90935 -102.73228 36769 ft 538 kts 95°
2026-04-26 18:25 37.90831 -102.63747 36771 ft 538 kts 95°
2026-04-26 18:26 37.90730 -102.54267 36788 ft 539 kts 95°
2026-04-26 18:26 37.90620 -102.44776 36806 ft 539 kts 95°
2026-04-26 18:27 37.90499 -102.35291 36800 ft 539 kts 95°
2026-04-26 18:27 37.90369 -102.25811 36816 ft 539 kts 95°
2026-04-26 18:28 37.90232 -102.16316 36829 ft 539 kts 95°
2026-04-26 18:28 37.90088 -102.06823 36829 ft 539 kts 95°
2026-04-26 18:29 37.89939 -101.97334 36830 ft 539 kts 95°
2026-04-26 18:29 37.89778 -101.87842 36850 ft 539 kts 96°
2026-04-26 18:30 37.89604 -101.78353 36855 ft 539 kts 96°
2026-04-26 18:30 37.89428 -101.68862 36863 ft 539 kts 96°
2026-04-26 18:31 37.89255 -101.59367 36856 ft 539 kts 95°
2026-04-26 18:31 37.89063 -101.49910 36848 ft 538 kts 96°
2026-04-26 18:32 37.88859 -101.40440 36868 ft 538 kts 96°
2026-04-26 18:32 37.88658 -101.30916 36880 ft 538 kts 96°
2026-04-26 18:33 37.88455 -101.21465 36868 ft 537 kts 96°
2026-04-26 18:33 37.88234 -101.12001 36877 ft 537 kts 96°
2026-04-26 18:34 37.87990 -101.02557 36883 ft 537 kts 96°
2026-04-26 18:34 37.87757 -100.93113 36890 ft 536 kts 96°
2026-04-26 18:35 37.87530 -100.83673 36892 ft 536 kts 96°
2026-04-26 18:35 37.87272 -100.74243 36892 ft 536 kts 96°
2026-04-26 18:36 37.87008 -100.64822 36891 ft 536 kts 96°
2026-04-26 18:36 37.86754 -100.55396 36874 ft 536 kts 96°
2026-04-26 18:37 37.86484 -100.45975 36885 ft 536 kts 96°
2026-04-26 18:37 37.86243 -100.38138 36891 ft 535 kts 96°
2026-04-26 18:38 37.85960 -100.28726 36886 ft 535 kts 96°
2026-04-26 18:38 37.85674 -100.19252 36867 ft 535 kts 96°
2026-04-26 18:39 37.85370 -100.09857 36882 ft 535 kts 96°
2026-04-26 18:39 37.85216 -100.00445 36886 ft 537 kts 89°
2026-04-26 18:40 37.86291 -99.91072 36889 ft 539 kts 82°
2026-04-26 18:40 37.87512 -99.81707 36867 ft 539 kts 82°
2026-04-26 18:41 37.88719 -99.72361 36886 ft 538 kts 82°
2026-04-26 18:41 37.89915 -99.63019 36888 ft 537 kts 82°
2026-04-26 18:42 37.91096 -99.53694 36889 ft 537 kts 82°
2026-04-26 18:42 37.92268 -99.44342 36869 ft 537 kts 82°
2026-04-26 18:43 37.93442 -99.35010 36879 ft 536 kts 82°
2026-04-26 18:43 37.94629 -99.25637 36883 ft 536 kts 82°
2026-04-26 18:44 37.95784 -99.16307 36877 ft 535 kts 82°
2026-04-26 18:44 37.96932 -99.06989 36860 ft 535 kts 82°
2026-04-26 18:45 37.98072 -98.97684 36869 ft 534 kts 82°
2026-04-26 18:45 37.99202 -98.88384 36866 ft 533 kts 82°
2026-04-26 18:46 38.00322 -98.79087 36852 ft 533 kts 82°
2026-04-26 18:46 38.01428 -98.69806 36826 ft 533 kts 82°
2026-04-26 18:47 38.02527 -98.60512 36833 ft 532 kts 82°
2026-04-26 18:47 38.03634 -98.51238 36837 ft 532 kts 82°
2026-04-26 18:48 38.04728 -98.41956 36829 ft 532 kts 82°
2026-04-26 18:48 38.05810 -98.32679 36798 ft 531 kts 81°
2026-04-26 18:49 38.06897 -98.23365 36841 ft 529 kts 81°
2026-04-26 18:49 38.07948 -98.14150 36840 ft 527 kts 82°
2026-04-26 18:50 38.08984 -98.04939 36853 ft 526 kts 82°
2026-04-26 18:50 38.09440 -97.95701 36841 ft 524 kts 88°
2026-04-26 18:51 38.09744 -97.86482 36875 ft 521 kts 88°
2026-04-26 18:51 38.10046 -97.77307 36870 ft 519 kts 88°
2026-04-26 18:52 38.10300 -97.69713 36855 ft 518 kts 88°
2026-04-26 18:52 38.10666 -97.59050 36825 ft 517 kts 88°
2026-04-26 18:53 38.10945 -97.50027 36785 ft 504 kts 88°
2026-04-26 18:53 38.11204 -97.41167 36800 ft 501 kts 88°
2026-04-26 18:54 38.11467 -97.32341 36805 ft 501 kts 88°
2026-04-26 18:54 38.11734 -97.23498 36803 ft 501 kts 88°
2026-04-26 18:55 38.12004 -97.14676 36802 ft 501 kts 88°
2026-04-26 18:55 38.12280 -97.05835 36801 ft 501 kts 87°
2026-04-26 18:56 38.12700 -97.01460 36792 ft 500 kts 76°
2026-04-26 18:56 38.13516 -96.97162 36790 ft 500 kts 75°
2026-04-26 18:56 38.15133 -96.88498 36782 ft 501 kts 75°
2026-04-26 18:57 38.16473 -96.81342 36817 ft 502 kts 76°
2026-04-26 18:57 38.18377 -96.71264 36827 ft 501 kts 76°
2026-04-26 18:58 38.20008 -96.62674 36841 ft 500 kts 76°
2026-04-26 18:58 38.21632 -96.54065 36840 ft 500 kts 76°
2026-04-26 18:59 38.23241 -96.45482 36859 ft 499 kts 76°
2026-04-26 18:59 38.24852 -96.36866 36789 ft 501 kts 76°
2026-04-26 19:00 38.26458 -96.28199 36772 ft 504 kts 76°
2026-04-26 19:00 38.28145 -96.19544 36635 ft 504 kts 71°
2026-04-26 19:01 38.29421 -96.15379 35414 ft 508 kts 62°
2026-04-26 19:01 38.31193 -96.11491 34065 ft 510 kts 52°
2026-04-26 19:01 38.33389 -96.07931 32604 ft 511 kts 44°
2026-04-26 19:01 38.35814 -96.04602 31059 ft 515 kts 43°
2026-04-26 19:02 38.38254 -96.01244 29477 ft 519 kts 43°
2026-04-26 19:02 38.40699 -95.97850 27670 ft 521 kts 44°
2026-04-26 19:02 38.43151 -95.94429 26057 ft 521 kts 45°
2026-04-26 19:02 38.44797 -95.92130 25069 ft 517 kts 45°
2026-04-26 19:03 38.47983 -95.87682 23312 ft 508 kts 45°
2026-04-26 19:03 38.50352 -95.84377 21878 ft 500 kts 46°
2026-04-26 19:03 38.52680 -95.81129 20655 ft 490 kts 46°
2026-04-26 19:03 38.54948 -95.77962 19518 ft 479 kts 46°
2026-04-26 19:04 38.57172 -95.74863 18648 ft 465 kts 46°
2026-04-26 19:04 38.59341 -95.71842 18106 ft 448 kts 47°
2026-04-26 19:04 38.61443 -95.68911 17551 ft 443 kts 46°
2026-04-26 19:04 38.63499 -95.66029 17049 ft 437 kts 46°
2026-04-26 19:05 38.67561 -95.60327 15982 ft 429 kts 47°
2026-04-26 19:05 38.69562 -95.57515 15433 ft 426 kts 47°
2026-04-26 19:05 38.71552 -95.54721 14880 ft 422 kts 48°
2026-04-26 19:06 38.73521 -95.51955 14302 ft 420 kts 48°
2026-04-26 19:06 38.75480 -95.49198 13724 ft 417 kts 49°
2026-04-26 19:06 38.77428 -95.46448 13075 ft 415 kts 49°
2026-04-26 19:06 38.79354 -95.43727 12436 ft 411 kts 50°
2026-04-26 19:07 38.81263 -95.41034 11805 ft 406 kts 50°
2026-04-26 19:07 38.83143 -95.38391 11626 ft 399 kts 50°
2026-04-26 19:07 38.85013 -95.35762 11424 ft 398 kts 50°
2026-04-26 19:07 38.86875 -95.33144 11184 ft 396 kts 50°
2026-04-26 19:08 38.88716 -95.30559 10968 ft 387 kts 49°
2026-04-26 19:08 38.90489 -95.28067 10838 ft 369 kts 49°
2026-04-26 19:08 38.92177 -95.25690 10715 ft 353 kts 49°
2026-04-26 19:08 38.93794 -95.23404 10597 ft 339 kts 50°
2026-04-26 19:09 38.95346 -95.21204 10477 ft 326 kts 50°
2026-04-26 19:09 38.96842 -95.19074 10324 ft 316 kts 50°
2026-04-26 19:09 38.97808 -95.17697 10157 ft 313 kts 50°
2026-04-26 19:09 38.99395 -95.15749 10002 ft 310 kts 43°
2026-04-26 19:10 39.00987 -95.13940 9870 ft 309 kts 43°
2026-04-26 19:10 39.02617 -95.12091 9708 ft 307 kts 43°
2026-04-26 19:10 39.04218 -95.10274 9535 ft 306 kts 43°
2026-04-26 19:10 39.05809 -95.08466 9379 ft 306 kts 44°
2026-04-26 19:11 39.07398 -95.06656 9225 ft 304 kts 44°
2026-04-26 19:11 39.08987 -95.04847 9073 ft 304 kts 44°
2026-04-26 19:11 39.10565 -95.03055 8923 ft 303 kts 44°
2026-04-26 19:11 39.12142 -95.01260 8755 ft 302 kts 44°
2026-04-26 19:12 39.13710 -94.99470 8623 ft 301 kts 44°
2026-04-26 19:12 39.15278 -94.97683 8464 ft 300 kts 44°
2026-04-26 19:12 39.16839 -94.95905 8325 ft 300 kts 44°
2026-04-26 19:12 39.18400 -94.94124 8167 ft 300 kts 44°
2026-04-26 19:13 39.19966 -94.92338 8023 ft 300 kts 43°
2026-04-26 19:13 39.21520 -94.90560 7873 ft 299 kts 43°
2026-04-26 19:13 39.23076 -94.88772 7716 ft 299 kts 44°
2026-04-26 19:13 39.24627 -94.86995 7570 ft 298 kts 44°
2026-04-26 19:14 39.26178 -94.85224 7416 ft 295 kts 44°
2026-04-26 19:14 39.27681 -94.83511 7301 ft 283 kts 43°
2026-04-26 19:14 39.29311 -94.82182 7186 ft 275 kts 25°
2026-04-26 19:14 39.30526 -94.81658 7098 ft 269 kts 14°
2026-04-26 19:15 39.32883 -94.80981 6889 ft 256 kts 13°
2026-04-26 19:15 39.34609 -94.80495 6567 ft 252 kts 14°
2026-04-26 19:15 39.36312 -94.80017 6216 ft 249 kts 14°
2026-04-26 19:15 39.37998 -94.79543 5792 ft 248 kts 14°
2026-04-26 19:16 39.39652 -94.78956 5393 ft 245 kts 28°
2026-04-26 19:16 39.40976 -94.77677 5097 ft 231 kts 54°
2026-04-26 19:16 39.41725 -94.75911 4838 ft 214 kts 79°
2026-04-26 19:16 39.41863 -94.74121 4640 ft 195 kts 100°
2026-04-26 19:17 39.41531 -94.72516 4481 ft 176 kts 119°
2026-04-26 19:17 39.40914 -94.71187 4229 ft 167 kts 126°
2026-04-26 19:17 39.40285 -94.69921 3883 ft 168 kts 126°
2026-04-26 19:17 39.39474 -94.68893 3526 ft 164 kts 156°
2026-04-26 19:18 39.38373 -94.68791 3201 ft 164 kts 196°
2026-04-26 19:18 39.37410 -94.69620 2742 ft 170 kts 214°
2026-04-26 19:18 39.36513 -94.70591 2355 ft 168 kts 209°
2026-04-26 19:18 39.35489 -94.71183 2052 ft 155 kts 186°
2026-04-26 19:19 39.34453 -94.71439 1748 ft 155 kts 185°
2026-04-26 19:19 39.33383 -94.71734 1329 ft 158 kts 189°
2026-04-26 19:19 39.32338 -94.72047 1057 ft 151 kts 187°
2026-04-26 19:19 39.31405 -94.72330 1019 ft 124 kts 192°
2026-04-26 19:20 39.30754 -94.72515 1012 ft 63 kts 193°
2026-04-26 19:20 39.30559 -94.72562 1013 ft 27 kts 184°
2026-04-26 19:20 39.30338 -94.72521 1014 ft 9 kts 157°
2026-04-26 19:20 39.30329 -94.72516 1014 ft 1 kts 157°
2026-04-26 19:21 39.30320 -94.72511 1014 ft 2 kts 157°
2026-04-26 19:21 39.30306 -94.72500 1015 ft 4 kts 144°
2026-04-26 19:21 39.30266 -94.72425 1015 ft 14 kts 128°
2026-04-26 19:21 39.30187 -94.72350 1014 ft 15 kts 147°
2026-04-26 19:22 39.30077 -94.72344 1015 ft 17 kts 192°
2026-04-26 19:22 39.30004 -94.72360 1015 ft 6 kts 155°
2026-04-26 19:22 39.29993 -94.72310 1015 ft 6 kts 100°
2026-04-26 19:22 39.29990 -94.72291 1014 ft 1 kts 101°
2026-04-26 19:23 39.29990 -94.72290 1015 ft 0 kts 101°